Location: Ajisawe
(8.4333°N, 4.3833°E)
Time: 20:44:32
(UTC+00:00)

Vanguard 2 Rocket - Pass Details

Date: 21 April 2021
Orbit: 554 x 3326 km, 32.9° (Epoch: 16 May)

Event Time Altitude Azimuth Distance (km) Brightness Sun altitude
Rises 15:51:35 0° 299° (WNW) 7,169 12.5 28.4°
Reaches altitude 10° 15:57:30 10° 309° (NW) 6,264 12.3 27.0°
Maximum altitude 16:14:29 32° 6° (N) 4,403 10.6 22.8°
Drops below altitude 10° 16:28:05 10° 63° (ENE) 5,063 10.3 19.5°
Sets 16:32:09 0° 74° (ENE) 5,692 10.4 18.5°
